Terminal Aerodrome Forecast
Issued by NWS

Home | Current Version | Previous Version | Text Only | Print | Product List | Glossary On
Versions: 1 2 3 4 5 6 7 8 9 10 11 12 13 14 15 16 17 18 19 20 21 22 23 24 25 26 27 28 29 30 31 32 33 34 35 36 37 38 39 40 41 42 43 44 45 46 47 48 49 50
000
FTUS43 KLOT 201700
TAFGYY
TAF
KGYY 201740Z 2018/2118 20004KT P6SM SCT045 OVC070
     FM210600 19005KT P6SM OVC030
     FM211400 17012G18KT P6SM SCT012 OVC018=

USA.gov is the U.S. government's official web portal to all federal, state and local government web resources and services.